TimeMDT,TemperatureF,Dew PointF,Humidity,Sea Level PressureIn,VisibilityMPH,Wind Direction,Wind SpeedMPH,Gust SpeedMPH,PrecipitationIn,Events,Conditions,WindDirDegrees,DateUTC
12:53 AM,37.0,26.1,65,30.26,10.0,Calm,Calm,-,N/A,,Overcast,0,2012-10-04 06:53:00
1:53 AM,35.1,26.1,70,30.26,10.0,East,6.9,-,N/A,,Overcast,90,2012-10-04 07:53:00
2:53 AM,35.1,26.1,70,30.25,10.0,ESE,5.8,-,N/A,,Mostly Cloudy,110,2012-10-04 08:53:00
3:53 AM,34.0,25.0,70,30.25,10.0,East,8.1,-,N/A,,Overcast,90,2012-10-04 09:53:00
4:53 AM,34.0,24.1,67,30.25,10.0,East,5.8,-,N/A,,Mostly Cloudy,90,2012-10-04 10:53:00
5:53 AM,34.0,25.0,70,30.29,10.0,ESE,4.6,-,N/A,,Overcast,110,2012-10-04 11:53:00
6:53 AM,34.0,25.0,70,30.35,10.0,Calm,Calm,-,N/A,,Mostly Cloudy,0,2012-10-04 12:53:00
7:53 AM,34.0,25.0,70,30.36,10.0,SE,3.5,-,N/A,,Overcast,140,2012-10-04 13:53:00
8:53 AM,35.1,25.0,67,30.37,10.0,East,4.6,-,N/A,,Overcast,100,2012-10-04 14:53:00
9:53 AM,37.0,24.1,59,30.37,10.0,ESE,5.8,-,N/A,,Mostly Cloudy,110,2012-10-04 15:53:00
10:53 AM,39.9,24.1,53,30.35,10.0,East,5.8,18.4,N/A,,Mostly Cloudy,80,2012-10-04 16:53:00
11:53 AM,44.1,25.0,47,30.32,10.0,East,9.2,-,N/A,,Scattered Clouds,90,2012-10-04 17:53:00
12:53 PM,46.9,27.0,46,30.28,10.0,NNE,9.2,-,N/A,,Scattered Clouds,30,2012-10-04 18:53:00
1:53 PM,48.0,27.0,44,30.25,10.0,NE,6.9,-,N/A,,Mostly Cloudy,40,2012-10-04 19:53:00
2:53 PM,48.0,27.0,44,30.23,10.0,NNE,9.2,-,N/A,,Mostly Cloudy,30,2012-10-04 20:53:00
3:53 PM,46.9,26.1,44,30.24,10.0,NNE,8.1,-,N/A,,Mostly Cloudy,20,2012-10-04 21:53:00
4:53 PM,48.0,27.0,44,30.23,10.0,North,9.2,-,N/A,,Mostly Cloudy,360,2012-10-04 22:53:00
5:53 PM,46.0,26.1,46,30.25,10.0,NE,4.6,-,N/A,,Mostly Cloudy,40,2012-10-04 23:53:00
6:53 PM,43.0,25.0,49,30.27,10.0,NNE,5.8,-,N/A,,Mostly Cloudy,30,2012-10-05 00:53:00
7:53 PM,42.1,25.0,51,30.27,10.0,NNE,4.6,-,N/A,,Scattered Clouds,20,2012-10-05 01:53:00
8:53 PM,39.0,27.0,62,30.27,10.0,NNW,5.8,-,N/A,,Mostly Cloudy,340,2012-10-05 02:53:00
9:53 PM,37.9,27.0,65,30.26,10.0,NNW,8.1,-,N/A,,Mostly Cloudy,330,2012-10-05 03:53:00
10:53 PM,37.0,26.1,65,30.25,10.0,NNW,6.9,-,N/A,,Mostly Cloudy,330,2012-10-05 04:53:00
11:53 PM,37.0,27.0,67,30.23,10.0,WNW,3.5,-,N/A,,Mostly Cloudy,300,2012-10-05 05:53:00